Temperature
17 17 18 18 18 18 18 18 18 18 18 18 18 18 18 18 18 18 18 18 18 18 18 18 18 18 18 18 18 18 18 18 18 18 18 18 18 18 18 18 18 17 18
17 17 18 18 18 18 18 18 18 18 17 17 17 17 17 17 17 17 17 17 17 18 18 18 18 18 18 18 18 18 18 18 18 18 18 18 18 18 18 18 18 18 18
17 17 17 17 17 17 17 17 17 17 17 17 17 17 17 17 17 17 17 17 17 17 17 17 17 17 17 18 18 18 18 18 18 18 18 17 17 18 18 18 18 18 18
17 17 17 17 17 17 17 17 17 17 17 17 17 17 17 17 17 16 16 16 17 17 17 17 17 17 17 17 17 18 18 18 18 18 17 17 17 18 18 18 18 18 18
17 17 17 17 17 17 17 17 17 16 16 16 16 16 16 16 16 16 16 16 16 16 16 16 17 17 17 17 17 17 17 18 18 17 17 17 17 18 18 18 18 18 18
17 16 16 17 17 16 16 16 16 16 16 16 16 16 16 16 16 16 16 16 16 16 16 16 16 16 17 17 17 17 17 17 17 17 17 17 17 17 18 18 18 18 18
17 17 16 17 16 16 16 16 16 16 16 16 16 16 15 15 15 15 15 15 16 16 16 16 16 16 16 17 17 17 17 17 17 16 16 17 17 17 18 18 18 18 18
17 16 16 16 16 16 16 16 16 15 15 15 15 15 15 15 15 15 15 15 15 15 15 15 16 16 16 16 17 17 17 17 17 17 16 17 17 17 17 18 18 18 18
17 17 16 16 16 16 16 16 15 15 15 15 15 15 15 15 15 15 15 15 15 15 15 15 15 16 16 16 16 16 17 17 16 16 17 17 17 17 17 17 17 17 18
17 17 16 16 16 16 16 16 16 15 15 15 15 15 15 15 15 15 15 15 15 15 15 15 15 15 15 16 16 16 16 17 16 16 17 17 17 17 17 17 17 17 17
17 17 17 16 16 16 16 16 15 15 15 15 15 15 15 15 15 15 15 15 15 15 15 15 15 15 15 15 16 16 16 16 16 16 16 17 17 17 17 17 17 17 17
18 17 17 17 16 16 16 16 15 15 15 15 15 15 15 15 15 15 15 15 15 15 15 15 15 15 15 16 16 16 16 16 16 16 16 17 17 17 17 17 17 17 17
18 18 17 17 17 17 16 16 16 16 15 15 15 15 15 15 15 15 15 15 14 14 14 15 15 15 15 15 16 16 16 16 17 16 16 16 17 17 17 17 17 17 17
18 18 18 17 17 17 16 16 16 16 15 15 15 15 15 15 15 15 15 14 14 14 14 14 15 15 15 16 16 16 16 16 16 16 16 16 16 16 17 17 17 17 17
18 18 18 17 17 17 16 16 16 16 16 15 15 15 15 15 15 15 15 14 14 14 14 14 15 15 15 15 16 16 16 16 16 16 16 16 16 16 16 17 17 17 17
19 19 18 18 17 17 17 16 16 16 15 15 15 14 15 15 15 14 15 14 14 14 14 14 15 15 15 15 15 15 15 16 16 16 16 16 16 16 16 16 17 17 17
19 19 18 18 17 17 17 16 16 16 16 15 15 15 15 14 14 14 14 14 14 14 14 14 15 15 15 15 15 15 15 15 15 15 15 16 16 16 16 16 17 17 17
19 19 18 18 17 17 17 16 16 16 15 15 15 15 15 14 14 14 14 14 14 14 14 14 14 15 15 15 15 15 15 15 15 15 15 15 16 16 16 16 16 17 17
19 19 18 18 17 17 17 16 16 16 15 15 15 15 14 14 14 14 14 14 14 14 14 14 14 14 15 15 15 15 15 15 15 15 15 15 15 15 15 16 16 16 17
19 19 18 18 18 17 17 16 16 16 15 15 15 14 14 14 14 14 14 14 14 14 14 14 14 14 14 15 15 15 15 15 15 15 15 15 15 15 15 15 16 16 16
19 19 18 18 18 17 17 17 16 16 15 15 15 14 14 14 14 14 14 14 14 14 14 14 14 14 14 15 15 15 15 15 15 15 15 15 15 15 15 15 15 15 16
19 19 19 18 18 17 17 17 16 16 15 15 15 15 14 14 14 14 14 14 14 14 14 14 14 14 14 14 15 15 16 16 15 15 15 15 15 15 15 15 15 15 15
19 19 19 18 18 18 17 17 16 16 16 15 15 15 14 14 14 14 14 14 14 14 14 14 14 14 14 14 14 15 16 16 15 15 15 15 15 15 15 15 15 15 15
19 19 19 18 18 18 17 17 17 16 16 15 15 15 15 15 14 14 14 14 14 14 14 14 14 14 14 14 14 14 14 15 15 15 15 15 15 15 15 15 15 15 15
19 19 19 19 18 18 17 17 16 16 16 16 15 15 15 15 15 15 14 14 14 14 14 14 14 14 14 14 14 14 14 14 15 15 15 15 15 15 15 15 15 15 15
20 19 19 19 18 18 17 17 16 16 16 16 15 15 15 15 15 15 15 14 14 14 14 14 14 14 14 14 14 14 14 14 15 15 15 15 15 15 15 15 15 15 15
Wind_Speed
5 6 9 9 10 11 11 11 11 11 11 11 10 10 10 10 10 9 9 8 8 8 8 8 8 8 8 7 8 7 7 8 8 7 7 7 7 7 7 7 6 5 8
7 8 10 9 11 11 11 11 11 11 11 10 10 9 10 10 9 9 8 8 8 8 8 8 8 7 7 7 7 7 8 7 7 7 4 4 6 7 7 7 7 8 8
8 8 10 10 11 11 11 11 11 11 11 11 10 10 10 9 9 8 8 8 8 7 7 7 8 7 7 7 7 7 7 7 7 5 3 2 6 7 7 7 7 7 7
8 9 11 12 12 11 11 11 11 11 11 11 10 10 10 9 9 9 8 8 8 8 7 7 7 7 7 7 7 7 6 6 5 5 2 5 5 8 7 7 7 7 7
9 10 12 11 12 11 11 11 11 11 11 10 10 9 9 9 9 9 8 8 8 7 7 7 7 6 6 6 6 6 6 5 3 4 4 4 4 7 6 6 7 7 7
10 11 12 11 11 11 11 11 11 10 10 10 10 9 9 9 9 9 8 8 7 7 7 6 6 6 6 6 6 5 5 4 5 2 3 3 4 6 5 5 6 7 7
10 11 12 11 11 11 12 11 11 11 11 10 10 9 8 8 7 7 7 7 6 6 6 5 5 5 5 5 5 5 5 5 3 1 1 2 5 5 4 5 5 6 7
10 10 12 11 11 11 11 11 11 10 10 10 9 9 8 7 7 6 6 6 5 5 5 5 4 4 4 4 4 4 4 7 2 1 1 2 5 4 3 4 5 5 6
9 9 9 11 11 10 10 10 10 9 9 9 8 8 8 7 7 6 6 5 5 5 5 5 4 4 4 4 4 4 3 4 3 1 1 2 5 3 3 3 4 4 5
8 8 8 8 8 8 9 9 8 8 8 7 7 7 5 3 4 4 4 6 6 6 6 6 5 4 3 3 3 2 2 6 2 1 0 4 5 3 3 3 3 3 4
7 6 6 6 6 6 6 7 5 5 5 2 5 4 2 4 5 4 9 8 7 6 6 6 5 4 2 2 1 2 5 2 1 0 2 6 4 2 2 3 3 2 3
7 6 5 5 5 5 4 4 4 4 5 5 5 5 5 5 5 5 5 5 5 4 2 4 3 3 5 1 4 5 2 0 1 1 4 6 3 3 2 2 2 2 3
7 5 4 4 4 4 3 3 4 4 4 5 5 5 4 4 3 4 4 3 3 3 4 2 3 2 2 1 2 0 1 1 1 2 5 6 3 3 3 3 3 3 3
6 5 4 3 4 3 3 3 3 4 4 5 5 6 5 4 4 5 4 5 4 4 4 4 3 2 2 1 1 1 1 1 2 2 5 6 4 3 4 4 4 3 3
6 5 4 3 3 3 3 2 3 4 5 6 5 5 6 4 4 4 4 5 5 5 4 4 3 3 2 2 1 1 1 2 2 2 4 7 5 4 4 4 4 3 3
6 6 5 4 3 3 3 3 5 5 5 5 5 6 6 5 5 5 5 5 5 5 5 4 3 2 1 2 2 2 1 2 2 2 3 5 6 6 5 4 4 4 3
7 7 6 4 4 4 4 5 4 4 5 5 5 6 6 6 6 6 5 5 5 5 5 4 4 2 1 1 1 2 2 2 2 3 3 2 4 7 6 5 5 4 4
7 7 6 5 4 5 4 4 4 4 5 5 5 6 7 7 7 6 5 5 6 5 4 3 4 3 2 2 2 2 2 2 2 2 2 3 3 3 6 6 5 5 4
6 6 7 6 5 5 5 4 4 4 4 5 5 6 6 7 7 7 6 6 6 5 5 4 4 3 3 3 2 3 3 3 3 2 3 3 4 2 3 6 5 5 4
6 6 7 7 6 6 4 4 4 4 4 4 5 5 6 6 7 6 5 7 6 5 5 5 4 4 3 3 3 4 4 4 3 3 2 3 3 3 2 3 3 5 5
8 7 8 8 7 6 4 3 3 3 3 3 4 5 5 6 6 6 5 6 6 6 6 6 4 4 4 3 2 3 5 5 5 4 3 3 3 3 2 2 2 2 4
9 8 8 8 7 6 3 3 2 3 2 3 2 3 4 5 6 6 6 5 6 5 6 6 5 4 4 4 3 1 2 4 4 4 4 3 3 2 2 2 3 2 2
9 9 7 7 7 6 5 3 3 3 2 2 2 3 4 4 5 5 6 6 6 6 6 6 6 5 4 5 5 3 2 2 2 3 4 4 4 3 2 3 2 2 2
9 8 8 8 7 6 5 4 3 1 2 2 2 3 3 4 4 5 5 6 6 5 5 6 6 5 5 4 4 4 4 3 1 1 3 4 5 4 3 2 2 3 3
9 8 8 7 7 6 5 4 3 2 2 2 2 3 3 4 4 5 5 5 5 5 6 6 6 6 5 5 5 4 4 2 2 1 2 2 3 4 4 3 3 3 3
9 8 8 8 8 6 5 5 3 4 3 3 2 3 3 3 3 5 4 4 5 5 5 5 5 6 5 6 5 5 4 3 3 2 2 2 3 3 4 4 3 3 3
Wind_Direction
94 94 96 98 101 100 98 97 99 101 100 99 99 99 97 96 96 93 89 85 81 77 71 66 61 60 59 59 57 54 51 50 51 51 53 54 53 53 49 37 15 49 46
102 94 95 94 95 95 95 96 97 97 97 98 97 96 93 90 88 86 85 83 79 75 70 64 57 53 53 53 49 47 46 47 47 45 38 78 72 52 47 42 26 33 31
102 99 100 91 91 92 93 93 93 92 91 90 89 88 87 84 81 77 75 75 72 69 65 60 56 49 46 46 42 40 41 42 42 28 312 60 80 66 46 45 38 34 30
98 94 88 91 90 88 88 90 89 88 87 86 84 82 80 80 76 71 67 66 65 63 60 54 52 45 39 38 36 35 35 39 32 323 353 46 55 66 45 42 36 32 31
97 93 91 90 89 89 88 88 86 86 86 84 80 77 76 74 71 67 64 61 59 59 55 48 45 39 35 31 29 29 28 29 356 304 34 38 48 60 45 40 33 32 31
101 97 94 92 92 91 89 88 86 84 82 79 77 75 73 71 68 62 59 57 56 53 49 45 38 30 26 22 21 19 17 2 292 21 26 30 49 54 41 38 33 32 31
103 98 97 93 92 89 87 86 82 79 77 74 71 68 66 64 61 56 54 54 50 44 36 32 28 22 19 15 12 12 6 336 314 353 2 35 49 40 34 34 31 31 30
105 101 102 97 87 83 82 80 77 75 73 70 66 62 59 56 54 52 49 48 42 33 26 19 14 10 8 9 8 8 357 318 294 313 1 50 53 28 33 35 32 30 34
109 105 102 105 104 97 83 74 72 69 64 61 58 56 53 52 50 45 40 34 29 22 19 12 9 13 10 7 3 4 3 324 296 281 315 67 58 28 34 35 29 31 39
117 110 104 99 96 99 99 84 68 61 56 56 59 55 50 79 77 54 41 42 24 18 14 10 12 16 14 18 6 352 297 258 267 259 95 82 60 30 39 36 32 35 46
126 120 113 104 97 91 85 89 83 83 62 67 93 75 356 34 47 60 44 39 32 26 22 16 15 10 318 167 128 275 255 261 93 325 58 66 53 42 45 37 39 43 52
136 129 121 114 108 95 79 77 64 58 53 38 39 35 31 37 31 26 83 58 39 18 23 32 338 256 262 209 158 217 248 231 131 107 80 67 53 54 53 46 43 54 58
130 130 126 119 109 94 85 61 51 47 52 51 42 41 32 31 26 21 14 38 21 353 1 8 296 351 335 7 328 323 21 357 35 67 82 67 50 59 68 62 59 59 61
134 128 127 126 115 91 73 67 57 57 50 46 43 34 33 33 21 27 19 14 6 8 -0 346 341 3 347 342 305 350 86 36 33 54 80 68 55 64 70 60 58 62 65
137 137 127 121 101 95 83 70 75 66 51 60 44 35 34 28 29 26 27 19 12 6 1 350 352 16 355 16 22 17 23 49 44 45 84 82 70 65 62 57 58 64 69
144 133 128 127 111 105 105 95 78 73 70 57 53 42 36 38 31 18 25 20 14 7 1 347 7 2 8 25 33 53 29 41 62 62 83 103 96 78 62 54 63 71 76
144 137 131 128 122 106 95 88 82 75 64 59 53 41 44 38 30 26 20 21 15 9 7 5 12 2 28 45 54 50 56 30 48 66 74 74 99 104 86 63 64 70 74
149 143 138 140 130 113 107 103 89 78 69 62 54 44 43 41 36 32 26 24 17 15 16 20 18 25 43 43 48 48 72 79 70 70 84 84 64 75 103 85 68 70 73
158 156 150 143 136 124 118 114 98 88 75 64 58 47 39 37 32 38 28 19 20 21 19 20 30 26 42 47 68 69 68 71 69 74 77 75 76 68 83 106 99 84 79
163 162 150 144 143 132 132 127 114 98 84 70 62 55 42 35 31 33 31 28 24 29 25 30 34 35 39 43 68 79 78 78 74 63 60 71 65 62 70 85 111 109 97
166 166 158 158 153 149 147 145 131 112 99 84 66 53 46 39 33 37 27 32 23 32 27 29 30 46 44 35 71 92 96 82 67 63 50 48 65 60 70 79 79 82 117
171 173 167 162 161 160 150 136 128 112 97 82 81 74 45 38 32 31 34 34 35 33 34 31 33 29 44 33 19 49 97 104 69 57 53 53 48 64 66 71 79 76 69
175 176 169 162 161 161 156 145 143 131 140 131 102 71 46 36 35 32 33 31 32 34 37 31 30 32 38 48 37 20 32 60 66 63 54 55 49 50 59 61 73 72 77
176 173 171 165 162 157 163 170 165 150 118 93 78 76 73 50 44 36 36 32 35 39 39 38 40 33 30 43 53 43 37 40 29 75 63 51 51 54 48 48 58 60 59
170 168 167 161 159 160 168 162 174 146 119 115 108 90 76 70 56 48 38 36 37 42 42 41 38 34 36 34 35 38 40 42 27 54 66 44 51 54 46 40 44 45 42
165 162 161 160 158 159 166 168 164 137 137 129 119 98 91 88 74 62 45 42 42 42 42 40 43 45 38 36 31 35 33 29 27 31 45 44 48 47 47 48 37 37 33
Height
1539 1539 1538 1539 1539 1540 1540 1540 1540 1541 1541 1541 1542 1542 1542 1542 1542 1542 1542 1542 1542 1542 1541 1541 1541 1541 1541 1540 1540 1539 1539 1539 1538 1538 1537 1536 1536 1535 1535 1534 1533 1534 1532
1540 1540 1539 1540 1540 1541 1541 1541 1542 1542 1542 1542 1542 1542 1542 1542 1543 1543 1543 1543 1543 1542 1542 1542 1541 1541 1541 1541 1540 1540 1540 1539 1539 1539 1538 1538 1537 1536 1536 1535 1534 1534 1532
1541 1542 1541 1541 1541 1542 1542 1542 1542 1543 1543 1543 1543 1543 1543 1543 1543 1543 1543 1543 1543 1542 1542 1542 1542 1541 1541 1541 1541 1541 1540 1540 1540 1539 1539 1540 1539 1537 1537 1536 1535 1534 1534
1543 1543 1543 1542 1543 1543 1543 1543 1543 1543 1543 1543 1544 1544 1543 1543 1543 1543 1543 1543 1543 1543 1542 1542 1542 1542 1541 1541 1541 1541 1540 1540 1540 1540 1542 1541 1540 1539 1538 1537 1536 1535 1535
1544 1545 1543 1543 1544 1544 1544 1544 1544 1544 1544 1544 1544 1544 1544 1544 1544 1544 1543 1543 1543 1542 1542 1542 1542 1541 1541 1541 1541 1541 1541 1540 1541 1541 1541 1541 1540 1539 1539 1538 1537 1536 1536
1546 1547 1545 1545 1545 1545 1545 1545 1545 1545 1545 1545 1545 1545 1545 1545 1544 1544 1544 1543 1543 1542 1542 1542 1541 1541 1541 1541 1540 1540 1540 1540 1541 1542 1541 1541 1541 1540 1540 1539 1538 1538 1537
1548 1549 1548 1547 1547 1547 1547 1547 1546 1547 1547 1546 1546 1546 1546 1545 1545 1544 1544 1543 1543 1542 1542 1541 1541 1541 1540 1540 1540 1540 1540 1540 1542 1542 1542 1542 1541 1540 1540 1540 1539 1539 1538
1550 1551 1550 1549 1549 1548 1549 1548 1548 1548 1548 1548 1547 1547 1546 1546 1546 1545 1544 1544 1543 1542 1542 1541 1541 1540 1540 1540 1540 1539 1540 1540 1542 1543 1542 1542 1541 1541 1541 1540 1540 1539 1538
1552 1552 1553 1553 1552 1551 1551 1550 1550 1550 1550 1549 1549 1548 1548 1547 1546 1546 1545 1544 1543 1543 1542 1541 1540 1540 1540 1539 1539 1539 1539 1540 1541 1542 1543 1542 1541 1541 1541 1541 1540 1540 1539
1553 1554 1555 1555 1555 1555 1554 1552 1552 1551 1551 1551 1550 1549 1549 1548 1547 1546 1546 1544 1544 1543 1542 1541 1540 1540 1539 1539 1539 1539 1539 1540 1541 1542 1543 1542 1541 1541 1541 1541 1541 1541 1540
1555 1556 1556 1556 1556 1556 1556 1554 1554 1553 1552 1552 1551 1550 1550 1550 1549 1548 1546 1545 1544 1543 1542 1541 1540 1539 1539 1539 1539 1539 1539 1542 1542 1542 1542 1541 1541 1541 1541 1541 1541 1541 1541
1557 1558 1558 1558 1558 1558 1557 1556 1556 1556 1554 1554 1553 1552 1551 1550 1549 1548 1546 1545 1544 1542 1541 1540 1540 1539 1540 1541 1540 1540 1541 1542 1542 1542 1541 1540 1541 1541 1541 1542 1542 1542 1542
1558 1558 1559 1559 1559 1559 1558 1558 1557 1556 1555 1555 1553 1552 1551 1551 1550 1549 1547 1546 1545 1543 1543 1541 1541 1541 1541 1541 1541 1541 1541 1542 1542 1542 1541 1540 1541 1541 1541 1542 1542 1542 1542
1559 1559 1560 1560 1560 1560 1559 1559 1558 1557 1556 1556 1554 1553 1552 1551 1550 1549 1548 1546 1545 1544 1542 1542 1541 1541 1541 1541 1541 1541 1541 1542 1542 1542 1541 1540 1541 1541 1542 1542 1542 1543 1543
1559 1560 1560 1560 1561 1560 1559 1559 1559 1558 1557 1556 1554 1554 1553 1552 1551 1549 1548 1546 1545 1544 1543 1542 1542 1541 1541 1541 1541 1541 1541 1541 1541 1542 1541 1541 1541 1541 1542 1542 1543 1543 1543
1560 1561 1561 1561 1561 1561 1561 1561 1560 1559 1558 1557 1556 1555 1553 1552 1551 1550 1549 1547 1546 1544 1543 1542 1542 1541 1541 1540 1540 1540 1541 1541 1541 1541 1542 1542 1541 1541 1542 1542 1543 1543 1544
1560 1561 1561 1561 1562 1562 1562 1561 1561 1560 1559 1558 1557 1556 1555 1553 1552 1551 1549 1548 1546 1545 1544 1542 1542 1541 1541 1541 1541 1540 1541 1541 1541 1542 1542 1542 1542 1542 1542 1543 1543 1544 1544
1561 1561 1562 1562 1562 1562 1562 1562 1562 1561 1560 1559 1558 1557 1556 1555 1553 1551 1550 1549 1547 1546 1544 1543 1542 1541 1541 1541 1541 1541 1541 1540 1541 1542 1542 1543 1543 1543 1543 1543 1543 1544 1544
1560 1562 1562 1563 1563 1563 1563 1562 1562 1562 1561 1560 1559 1558 1557 1556 1555 1553 1551 1549 1548 1547 1545 1544 1543 1542 1541 1541 1541 1541 1541 1541 1541 1542 1543 1543 1543 1543 1544 1543 1543 1544 1545
1560 1561 1562 1562 1563 1563 1563 1564 1563 1563 1562 1562 1561 1559 1558 1557 1555 1554 1553 1551 1549 1548 1546 1545 1544 1543 1542 1542 1542 1542 1542 1542 1542 1543 1543 1543 1544 1544 1544 1544 1544 1545 1545
1559 1561 1562 1563 1563 1564 1564 1565 1564 1564 1563 1563 1561 1560 1559 1558 1557 1555 1554 1552 1550 1549 1548 1547 1546 1545 1544 1543 1543 1543 1543 1543 1544 1543 1544 1544 1544 1544 1544 1544 1545 1545 1545
1559 1560 1562 1563 1564 1564 1564 1565 1565 1564 1564 1563 1562 1562 1561 1560 1558 1557 1555 1554 1553 1551 1550 1548 1547 1546 1545 1544 1545 1545 1545 1546 1545 1545 1544 1544 1544 1544 1544 1545 1545 1545 1546
1558 1560 1562 1563 1564 1564 1564 1565 1565 1565 1564 1564 1564 1563 1562 1560 1559 1558 1557 1556 1554 1553 1552 1550 1549 1548 1547 1547 1546 1546 1546 1546 1546 1547 1545 1545 1545 1545 1545 1545 1545 1546 1546
1557 1559 1561 1562 1563 1564 1564 1565 1566 1566 1566 1565 1565 1564 1563 1562 1560 1559 1558 1557 1556 1555 1554 1553 1551 1550 1549 1549 1548 1547 1547 1547 1547 1547 1547 1547 1546 1545 1545 1546 1546 1546 1546
1556 1558 1560 1561 1562 1563 1564 1564 1565 1566 1566 1565 1565 1564 1564 1563 1562 1560 1559 1559 1558 1557 1555 1554 1553 1552 1551 1550 1550 1549 1548 1547 1548 1548 1548 1548 1547 1547 1546 1546 1546 1546 1546
1554 1556 1558 1560 1561 1562 1563 1564 1565 1565 1565 1566 1565 1565 1565 1564 1563 1562 1561 1560 1559 1558 1557 1556 1555 1554 1553 1552 1551 1550 1550 1549 1549 1549 1548 1548 1548 1548 1547 1546 1546 1546 1546